ATLAS 5 CENTAUR DEB, 46656

Orbit data source: Space-Track

ATLAS 5 CENTAUR DEB, 46656 is space debris in HEO originally from a launch on Wed, 17 Oct 2018 UTC launched from the Air Force Eastern Test Range (AFETR). Debris objects in space refer to the collection of defunct objects orbiting the Earth. Examples of debris include non-operational satellites, rocket bodies, and fragments generated from explosions, collisions, or faulty payload assembly.

Loading next visibility...
Identifier
46656, 2018-079CJ
Orbit
HEO
Country
Flag of USUS
Related business
Flag of USUnited Launch Alliance/Lockheed Martin (US)
Manufacturer
ULA Decatur
Mission
Spacecraft
Bus & Motor
Unknown
Mass
Unknown
Launch date (UTC)
2018-10-17 (7 years ago)
Launch vehicle
Unknown
Launch site
Air Force Eastern Test Range (AFETR)
Object type
Payload
Rocket body
Debris
Shape & HBR
Unknown shape, 1.1 m
Radar Cross Section
RCS unknown

Expand to show TLE details & history
Last TLE update: 6 days ago

TLE from 6 days ago
0 ATLAS 5 CENTAUR DEB
1 46656U 18079CJ  25281.38771157 -.00000124  00000-0  00000-0 0  9997
2 46656  13.3399  24.3016 4527287 340.0323   6.8540  1.96953112 35999
Epoch: 2025-10-08T09:18Z
TLE epoch observation values (Epoch: 2025-10-08T09:18:18.279Z)
Latitude
0.00002°
Longitude
-132.54669°
Altitude
8,584.77 km
Speed
6.201 km/s
True Right ascension
01h 37m 10s
True Declination
0° 00' 00"
Sunlit
Object was in full shadow at epoch
Visualization orbit readout
Latitude
Unknown
Longitude
Unknown
Altitude
Unknown
Speed
Unknown
Apparent Right ascension
Unknown
Apparent Declination
Unknown
Sunlit
N/A
Visualization observer readout
Local Sidereal Time
09:02:48
Azimuth
Unknown
Elevation
Unknown
Doppler factor
Unknown
Orbital elements
Apogee altitude
32,680.08 km
Perigee altitude
8,335.857 km
Semi-major axis
26,886.105 km
Eccentricity
0.45273
Inclination
13.3399°
RAAN
24.3016°
Arg. of periapsis
340.0323°
True anomaly
20.14327°
Mean anomaly
6.854°
Eccentric anomaly
12.44323°
Mean motion
0.49232 °/min
Orbital period
731.23 mins
BSTAR
0
Loading maneuver chart data...
Computing Atmospheric mass density...

Documentation

Showing up to 5 results
|